Year,Month,Day,Hour,Minute,Value (Times are PST for temperature in C)
2021,06,04,00,00,14.40
2021,06,04,00,01,14.40
2021,06,04,00,02,14.30
2021,06,04,00,03,14.30
2021,06,04,00,04,14.30
2021,06,04,00,05,14.30
2021,06,04,00,06,14.30
2021,06,04,00,07,14.20
2021,06,04,00,08,14.20
2021,06,04,00,09,14.20
2021,06,04,00,10,14.20
2021,06,04,00,11,14.20
2021,06,04,00,12,14.20
2021,06,04,00,13,14.20
2021,06,04,00,14,14.20
2021,06,04,00,15,14.20
2021,06,04,00,16,14.20
2021,06,04,00,17,14.10
2021,06,04,00,18,14.10
2021,06,04,00,19,14.10
2021,06,04,00,20,14.00
2021,06,04,00,21,14.00
2021,06,04,00,22,14.00
2021,06,04,00,23,14.00
2021,06,04,00,24,14.00
2021,06,04,00,25,13.90
2021,06,04,00,26,13.90
2021,06,04,00,27,13.90
2021,06,04,00,28,13.90
2021,06,04,00,29,13.80
2021,06,04,00,30,13.80
2021,06,04,00,31,13.80
2021,06,04,00,32,13.80
2021,06,04,00,33,13.80
2021,06,04,00,34,13.80
2021,06,04,00,35,13.80
2021,06,04,00,36,13.70
2021,06,04,00,37,13.70
2021,06,04,00,38,13.70
2021,06,04,00,39,13.70
2021,06,04,00,40,13.70
2021,06,04,00,41,13.60
2021,06,04,00,42,13.60
2021,06,04,00,43,13.50
2021,06,04,00,44,13.50
2021,06,04,00,45,13.40
2021,06,04,00,46,13.40
2021,06,04,00,47,13.40
2021,06,04,00,48,13.50
2021,06,04,00,49,13.50
2021,06,04,00,50,13.60
2021,06,04,00,51,13.70
2021,06,04,00,52,13.70
2021,06,04,00,53,13.70
2021,06,04,00,54,13.70
2021,06,04,00,55,13.70
2021,06,04,00,56,13.70
2021,06,04,00,57,13.70
2021,06,04,00,58,13.70
2021,06,04,00,59,13.70
2021,06,04,01,00,13.70
2021,06,04,01,01,13.70
2021,06,04,01,02,13.70
2021,06,04,01,03,13.70
2021,06,04,01,04,13.80
2021,06,04,01,05,13.80
2021,06,04,01,06,13.70
2021,06,04,01,07,13.80
2021,06,04,01,08,13.80
2021,06,04,01,09,13.80
2021,06,04,01,10,13.80
2021,06,04,01,11,13.80
2021,06,04,01,12,13.80
2021,06,04,01,13,13.80
2021,06,04,01,14,13.80
2021,06,04,01,15,13.80
2021,06,04,01,16,13.80
2021,06,04,01,17,13.80
2021,06,04,01,18,13.80
2021,06,04,01,19,13.80
2021,06,04,01,20,13.70
2021,06,04,01,21,13.70
2021,06,04,01,22,13.70
2021,06,04,01,23,13.70
2021,06,04,01,24,13.70
2021,06,04,01,25,13.60
2021,06,04,01,26,13.60
2021,06,04,01,27,13.60
2021,06,04,01,28,13.60
2021,06,04,01,29,13.60
2021,06,04,01,30,13.60
2021,06,04,01,31,13.60
2021,06,04,01,32,13.60
2021,06,04,01,33,13.60
2021,06,04,01,34,13.60
2021,06,04,01,35,13.60
2021,06,04,01,36,13.60
2021,06,04,01,37,13.60
2021,06,04,01,38,13.50
2021,06,04,01,39,13.50
2021,06,04,01,40,13.50
2021,06,04,01,41,13.50
2021,06,04,01,42,13.50
2021,06,04,01,43,13.40
2021,06,04,01,44,13.40
2021,06,04,01,45,13.40
2021,06,04,01,46,13.40
2021,06,04,01,47,13.40
2021,06,04,01,48,13.40
2021,06,04,01,49,13.30
2021,06,04,01,50,13.30
2021,06,04,01,51,13.30
2021,06,04,01,52,13.30
2021,06,04,01,53,13.20
2021,06,04,01,54,13.20
2021,06,04,01,55,13.20
2021,06,04,01,56,13.20
2021,06,04,01,57,13.20
2021,06,04,01,58,13.10
2021,06,04,01,59,13.10
2021,06,04,02,00,13.10
2021,06,04,02,01,13.10
2021,06,04,02,02,13.10
2021,06,04,02,03,13.00
2021,06,04,02,04,12.90
2021,06,04,02,05,12.90
2021,06,04,02,06,12.90
2021,06,04,02,07,12.80
2021,06,04,02,08,12.80
2021,06,04,02,09,12.80
2021,06,04,02,10,12.80
2021,06,04,02,11,12.80
2021,06,04,02,12,12.80
2021,06,04,02,13,12.80
2021,06,04,02,14,12.80
2021,06,04,02,15,12.80
2021,06,04,02,16,12.80
2021,06,04,02,17,12.70
2021,06,04,02,18,12.70
2021,06,04,02,19,12.70
2021,06,04,02,20,12.80
2021,06,04,02,21,12.80
2021,06,04,02,22,12.80
2021,06,04,02,23,12.80
2021,06,04,02,24,12.70
2021,06,04,02,25,12.70
2021,06,04,02,26,12.70
2021,06,04,02,27,12.70
2021,06,04,02,28,12.70
2021,06,04,02,29,12.70
2021,06,04,02,30,12.70
2021,06,04,02,31,12.70
2021,06,04,02,32,12.70
2021,06,04,02,33,12.70
2021,06,04,02,34,12.70
2021,06,04,02,35,12.80
2021,06,04,02,36,12.80
2021,06,04,02,37,12.80
2021,06,04,02,38,12.80
2021,06,04,02,39,12.90
2021,06,04,02,40,12.90
2021,06,04,02,41,12.90
2021,06,04,02,42,12.80
2021,06,04,02,43,12.80
2021,06,04,02,44,12.80
2021,06,04,02,45,12.80
2021,06,04,02,46,12.80
2021,06,04,02,47,12.80
2021,06,04,02,48,12.70
2021,06,04,02,49,12.70
2021,06,04,02,50,12.70
2021,06,04,02,51,12.70
2021,06,04,02,52,12.70
2021,06,04,02,53,12.70
2021,06,04,02,54,12.80
2021,06,04,02,55,12.80
2021,06,04,02,56,12.80
2021,06,04,02,57,12.80
2021,06,04,02,58,12.80
2021,06,04,02,59,12.80
2021,06,04,03,00,12.80
2021,06,04,03,01,12.80
2021,06,04,03,02,12.80
2021,06,04,03,03,12.80
2021,06,04,03,04,12.80
2021,06,04,03,05,12.80
2021,06,04,03,06,12.80
2021,06,04,03,07,12.80
2021,06,04,03,08,12.70
2021,06,04,03,09,12.70
2021,06,04,03,10,12.70
2021,06,04,03,11,12.70
2021,06,04,03,12,12.60
2021,06,04,03,13,12.70
2021,06,04,03,14,12.70
2021,06,04,03,15,12.70
2021,06,04,03,16,12.70
2021,06,04,03,17,12.70
2021,06,04,03,18,12.70
2021,06,04,03,19,12.60
2021,06,04,03,20,12.60
2021,06,04,03,21,12.50
2021,06,04,03,22,12.50
2021,06,04,03,23,12.50
2021,06,04,03,24,12.50
2021,06,04,03,25,12.40
2021,06,04,03,26,12.40
2021,06,04,03,27,12.40
2021,06,04,03,28,12.30
2021,06,04,03,29,12.30
2021,06,04,03,30,12.30
2021,06,04,03,31,12.40
2021,06,04,03,32,12.40
2021,06,04,03,33,12.50
2021,06,04,03,34,12.60
2021,06,04,03,35,12.60
2021,06,04,03,36,12.70
2021,06,04,03,37,12.80
2021,06,04,03,38,12.80
2021,06,04,03,39,12.80
2021,06,04,03,40,12.80
2021,06,04,03,41,12.80
2021,06,04,03,42,12.80
2021,06,04,03,43,12.80
2021,06,04,03,44,12.80
2021,06,04,03,45,12.80
2021,06,04,03,46,12.80
2021,06,04,03,47,12.80
2021,06,04,03,48,12.80
2021,06,04,03,49,12.80
2021,06,04,03,50,12.70
2021,06,04,03,51,12.70
2021,06,04,03,52,12.60
2021,06,04,03,53,12.60
2021,06,04,03,54,12.50
2021,06,04,03,55,12.50
2021,06,04,03,56,12.40
2021,06,04,03,57,12.40
2021,06,04,03,58,12.30
2021,06,04,03,59,12.20
2021,06,04,04,00,12.20
2021,06,04,04,01,12.10
2021,06,04,04,02,12.10
2021,06,04,04,03,12.10
2021,06,04,04,04,12.10
2021,06,04,04,05,12.10
2021,06,04,04,06,12.10
2021,06,04,04,07,12.10
2021,06,04,04,08,12.10
2021,06,04,04,09,12.10
2021,06,04,04,10,12.00
2021,06,04,04,11,12.00
2021,06,04,04,12,12.00
2021,06,04,04,13,12.00
2021,06,04,04,14,12.00
2021,06,04,04,15,11.90
2021,06,04,04,16,12.00
2021,06,04,04,17,11.90
2021,06,04,04,18,12.00
2021,06,04,04,19,12.00
2021,06,04,04,20,12.00
2021,06,04,04,21,12.00
2021,06,04,04,22,12.00
2021,06,04,04,23,12.10
2021,06,04,04,24,12.20
2021,06,04,04,25,12.20
2021,06,04,04,26,12.20
2021,06,04,04,27,12.30
2021,06,04,04,28,12.30
2021,06,04,04,29,12.30
2021,06,04,04,30,12.40
2021,06,04,04,31,12.40
2021,06,04,04,32,12.40
2021,06,04,04,33,12.40
2021,06,04,04,34,12.40
2021,06,04,04,35,12.30
2021,06,04,04,36,12.30
2021,06,04,04,37,12.30
2021,06,04,04,38,12.30
2021,06,04,04,39,12.30
2021,06,04,04,40,12.30
2021,06,04,04,41,12.30
2021,06,04,04,42,12.20
2021,06,04,04,43,12.20
2021,06,04,04,44,12.20
2021,06,04,04,45,12.20
2021,06,04,04,46,12.20
2021,06,04,04,47,12.10
2021,06,04,04,48,12.10
2021,06,04,04,49,12.00
2021,06,04,04,50,12.00
2021,06,04,04,51,11.90
2021,06,04,04,52,11.90
2021,06,04,04,53,11.90
2021,06,04,04,54,11.90
2021,06,04,04,55,11.90
2021,06,04,04,56,11.80
2021,06,04,04,57,11.80
2021,06,04,04,58,11.80
2021,06,04,04,59,11.80
2021,06,04,05,00,11.80
2021,06,04,05,01,11.80
2021,06,04,05,02,11.80
2021,06,04,05,03,11.70
2021,06,04,05,04,11.70
2021,06,04,05,05,11.70
2021,06,04,05,06,11.70
2021,06,04,05,07,11.70
2021,06,04,05,08,11.60
2021,06,04,05,09,11.60
2021,06,04,05,10,11.50
2021,06,04,05,11,11.50
2021,06,04,05,12,11.50
2021,06,04,05,13,11.40
2021,06,04,05,14,11.40
2021,06,04,05,15,11.40
2021,06,04,05,16,11.40
2021,06,04,05,17,11.40
2021,06,04,05,18,11.30
2021,06,04,05,19,11.30
2021,06,04,05,20,11.30
2021,06,04,05,21,11.20
2021,06,04,05,22,11.20
2021,06,04,05,23,11.20
2021,06,04,05,24,11.20
2021,06,04,05,25,11.10
2021,06,04,05,26,11.10
2021,06,04,05,27,11.10
2021,06,04,05,28,11.10
2021,06,04,05,29,11.10
2021,06,04,05,30,11.00
2021,06,04,05,31,11.00
2021,06,04,05,32,11.00
2021,06,04,05,33,11.00
2021,06,04,05,34,10.90
2021,06,04,05,35,10.90
2021,06,04,05,36,10.90
2021,06,04,05,37,10.90
2021,06,04,05,38,10.80
2021,06,04,05,39,10.80
2021,06,04,05,40,10.80
2021,06,04,05,41,10.80
2021,06,04,05,42,10.80
2021,06,04,05,43,10.80
2021,06,04,05,44,10.80
2021,06,04,05,45,10.80
2021,06,04,05,46,10.80
2021,06,04,05,47,10.80
2021,06,04,05,48,10.80
2021,06,04,05,49,10.80
2021,06,04,05,50,10.80
2021,06,04,05,51,10.80
2021,06,04,05,52,10.70
2021,06,04,05,53,10.70
2021,06,04,05,54,10.70
2021,06,04,05,55,10.70
2021,06,04,05,56,10.70
2021,06,04,05,57,10.70
2021,06,04,05,58,10.70
2021,06,04,05,59,10.70
2021,06,04,06,00,10.70
2021,06,04,06,01,10.70
2021,06,04,06,02,10.70
2021,06,04,06,03,10.80
2021,06,04,06,04,10.80
2021,06,04,06,05,10.80
2021,06,04,06,06,10.80
2021,06,04,06,07,10.90
2021,06,04,06,08,10.90
2021,06,04,06,09,10.90
2021,06,04,06,10,10.90
2021,06,04,06,11,11.00
2021,06,04,06,12,11.00
2021,06,04,06,13,11.00
2021,06,04,06,14,11.00
2021,06,04,06,15,11.10
2021,06,04,06,16,11.10
2021,06,04,06,17,11.10
2021,06,04,06,18,11.10
2021,06,04,06,19,11.10
2021,06,04,06,20,11.10
2021,06,04,06,21,11.10
2021,06,04,06,22,11.10
2021,06,04,06,23,11.10
2021,06,04,06,24,11.10
2021,06,04,06,25,11.20
2021,06,04,06,26,11.20
2021,06,04,06,27,11.20
2021,06,04,06,28,11.20
2021,06,04,06,29,11.20
2021,06,04,06,30,11.20
2021,06,04,06,31,11.20
2021,06,04,06,32,11.20
2021,06,04,06,33,11.20
2021,06,04,06,34,11.20
2021,06,04,06,35,11.30
2021,06,04,06,36,11.30
2021,06,04,06,37,11.30
2021,06,04,06,38,11.40
2021,06,04,06,39,11.40
2021,06,04,06,40,11.50
2021,06,04,06,41,11.50
2021,06,04,06,42,11.60
2021,06,04,06,43,11.70
2021,06,04,06,44,11.70
2021,06,04,06,45,11.80
2021,06,04,06,46,11.80
2021,06,04,06,47,11.80
2021,06,04,06,48,11.90
2021,06,04,06,49,11.90
2021,06,04,06,50,11.90
2021,06,04,06,51,12.00
2021,06,04,06,52,12.00
2021,06,04,06,53,12.10
2021,06,04,06,54,12.20
2021,06,04,06,55,12.20
2021,06,04,06,56,12.30
2021,06,04,06,57,12.30
2021,06,04,06,58,12.40
2021,06,04,06,59,12.50
2021,06,04,07,00,12.50
2021,06,04,07,01,12.60
2021,06,04,07,02,12.60
2021,06,04,07,03,12.70
2021,06,04,07,04,12.80
2021,06,04,07,05,12.80
2021,06,04,07,06,12.90
2021,06,04,07,07,12.90
2021,06,04,07,08,13.00
2021,06,04,07,09,13.10
2021,06,04,07,10,13.10
2021,06,04,07,11,13.20
2021,06,04,07,12,13.30
2021,06,04,07,13,13.40
2021,06,04,07,14,13.50
2021,06,04,07,15,13.70
2021,06,04,07,16,13.70
2021,06,04,07,17,13.80
2021,06,04,07,18,13.90
2021,06,04,07,19,14.00
2021,06,04,07,20,14.10
2021,06,04,07,21,14.10
2021,06,04,07,22,14.20
2021,06,04,07,23,14.30
2021,06,04,07,24,14.30
2021,06,04,07,25,14.30
2021,06,04,07,26,14.30
2021,06,04,07,27,14.40
2021,06,04,07,28,14.40
2021,06,04,07,29,14.40
2021,06,04,07,30,14.40
2021,06,04,07,31,14.40
2021,06,04,07,32,14.40
2021,06,04,07,33,14.50
2021,06,04,07,34,14.50
2021,06,04,07,35,14.50
2021,06,04,07,36,14.50
2021,06,04,07,37,14.50
2021,06,04,07,38,14.50
2021,06,04,07,39,14.60
2021,06,04,07,40,14.60
2021,06,04,07,41,14.60
2021,06,04,07,42,14.60
2021,06,04,07,43,14.60
2021,06,04,07,44,14.60
2021,06,04,07,45,14.70
2021,06,04,07,46,14.70
2021,06,04,07,47,14.70
2021,06,04,07,48,14.70
2021,06,04,07,49,14.70
2021,06,04,07,50,14.80
2021,06,04,07,51,14.80
2021,06,04,07,52,14.80
2021,06,04,07,53,14.80
2021,06,04,07,54,14.80
2021,06,04,07,55,14.90
2021,06,04,07,56,14.90
2021,06,04,07,57,14.90
2021,06,04,07,58,14.90
2021,06,04,07,59,15.00
2021,06,04,08,00,15.00
2021,06,04,08,01,15.00
2021,06,04,08,02,15.10
2021,06,04,08,03,15.10
2021,06,04,08,04,15.10
2021,06,04,08,05,15.10
2021,06,04,08,06,15.10
2021,06,04,08,07,15.10
2021,06,04,08,08,15.20
2021,06,04,08,09,15.20
2021,06,04,08,10,15.20
2021,06,04,08,11,15.20
2021,06,04,08,12,15.20
2021,06,04,08,13,15.20
2021,06,04,08,14,15.20
2021,06,04,08,15,15.20
2021,06,04,08,16,15.20
2021,06,04,08,17,15.20
2021,06,04,08,18,15.20
2021,06,04,08,19,15.30
2021,06,04,08,20,15.30
2021,06,04,08,21,15.30
2021,06,04,08,22,15.30
2021,06,04,08,23,15.30
2021,06,04,08,24,15.30
2021,06,04,08,25,15.30
2021,06,04,08,26,15.30
2021,06,04,08,27,15.30
2021,06,04,08,28,15.30
2021,06,04,08,29,15.40
2021,06,04,08,30,15.40
2021,06,04,08,31,15.40
2021,06,04,08,32,15.40
2021,06,04,08,33,15.40
2021,06,04,08,34,15.40
2021,06,04,08,35,15.50
2021,06,04,08,36,15.50
2021,06,04,08,37,15.50
2021,06,04,08,38,15.60
2021,06,04,08,39,15.60
2021,06,04,08,40,15.60
2021,06,04,08,41,15.70
2021,06,04,08,42,15.70
2021,06,04,08,43,15.70
2021,06,04,08,44,15.70
2021,06,04,08,45,15.70
2021,06,04,08,46,15.80
2021,06,04,08,47,15.80
2021,06,04,08,48,15.80
2021,06,04,08,49,15.80
2021,06,04,08,50,15.80
2021,06,04,08,51,15.80
2021,06,04,08,52,15.80
2021,06,04,08,53,15.80
2021,06,04,08,54,15.90
2021,06,04,08,55,15.90
2021,06,04,08,56,15.80
2021,06,04,08,57,15.80
2021,06,04,08,58,15.80
2021,06,04,08,59,15.80
2021,06,04,09,00,15.80
2021,06,04,09,01,15.80
2021,06,04,09,02,15.70
2021,06,04,09,03,15.80
2021,06,04,09,04,15.70
2021,06,04,09,05,15.70
2021,06,04,09,06,15.70
2021,06,04,09,07,15.70
2021,06,04,09,08,15.70
2021,06,04,09,09,15.70
2021,06,04,09,10,15.80
2021,06,04,09,11,15.80
2021,06,04,09,12,15.80
2021,06,04,09,13,15.80
2021,06,04,09,14,15.80
2021,06,04,09,15,15.80
2021,06,04,09,16,15.90
2021,06,04,09,17,15.90
2021,06,04,09,18,15.90
2021,06,04,09,19,15.90
2021,06,04,09,20,16.00
2021,06,04,09,21,16.00
2021,06,04,09,22,16.00
2021,06,04,09,23,16.10
2021,06,04,09,24,16.10
2021,06,04,09,25,16.20
2021,06,04,09,26,16.20
2021,06,04,09,27,16.20
2021,06,04,09,28,16.30
2021,06,04,09,29,16.30
2021,06,04,09,30,16.40
2021,06,04,09,31,16.40
2021,06,04,09,32,16.40
2021,06,04,09,33,16.50
2021,06,04,09,34,16.50
2021,06,04,09,35,16.50
2021,06,04,09,36,16.50
2021,06,04,09,37,16.50
2021,06,04,09,38,16.50
2021,06,04,09,39,16.50
2021,06,04,09,40,16.50
2021,06,04,09,41,16.50
2021,06,04,09,42,16.50
2021,06,04,09,43,16.60
2021,06,04,09,44,16.60
2021,06,04,09,45,16.60
2021,06,04,09,46,16.60
2021,06,04,09,47,16.60
2021,06,04,09,48,16.70
2021,06,04,09,49,16.70
2021,06,04,09,50,16.70
2021,06,04,09,51,16.70
2021,06,04,09,52,16.70
2021,06,04,09,53,16.80
2021,06,04,09,54,16.80
2021,06,04,09,55,16.90
2021,06,04,09,56,16.90
2021,06,04,09,57,17.00
2021,06,04,09,58,17.00
2021,06,04,09,59,17.10
2021,06,04,10,00,17.10
2021,06,04,10,01,17.10
2021,06,04,10,02,17.10
2021,06,04,10,03,17.10
2021,06,04,10,04,17.10
2021,06,04,10,05,17.10
2021,06,04,10,06,17.20
2021,06,04,10,07,17.20
2021,06,04,10,08,17.20
2021,06,04,10,09,17.20
2021,06,04,10,10,17.30
2021,06,04,10,11,17.30
2021,06,04,10,12,17.30
2021,06,04,10,13,17.30
2021,06,04,10,14,17.30
2021,06,04,10,15,17.30
2021,06,04,10,16,17.30
2021,06,04,10,17,17.30
2021,06,04,10,18,17.30
2021,06,04,10,19,17.20
2021,06,04,10,20,17.20
2021,06,04,10,21,17.20
2021,06,04,10,22,17.20
2021,06,04,10,23,17.10
2021,06,04,10,24,17.10
2021,06,04,10,25,17.00
2021,06,04,10,26,17.00
2021,06,04,10,27,16.90
2021,06,04,10,28,16.90
2021,06,04,10,29,16.80
2021,06,04,10,30,16.70
2021,06,04,10,31,16.70
2021,06,04,10,32,16.60
2021,06,04,10,33,16.60
2021,06,04,10,34,16.50
2021,06,04,10,35,16.50
2021,06,04,10,36,16.40
2021,06,04,10,37,16.40
2021,06,04,10,38,16.30
2021,06,04,10,39,16.30
2021,06,04,10,40,16.30
2021,06,04,10,41,16.20
2021,06,04,10,42,16.20
2021,06,04,10,43,16.20
2021,06,04,10,44,16.30
2021,06,04,10,45,16.30
2021,06,04,10,46,16.30
2021,06,04,10,47,16.30
2021,06,04,10,48,16.40
2021,06,04,10,49,16.40
2021,06,04,10,50,16.50
2021,06,04,10,51,16.50
2021,06,04,10,52,16.60
2021,06,04,10,53,16.60
2021,06,04,10,54,16.60
2021,06,04,10,55,16.60
2021,06,04,10,56,16.70
2021,06,04,10,57,16.70
2021,06,04,10,58,16.80
2021,06,04,10,59,16.80
2021,06,04,11,00,16.90
2021,06,04,11,01,16.90
2021,06,04,11,02,17.00
2021,06,04,11,03,17.10
2021,06,04,11,04,17.10
2021,06,04,11,05,17.20
2021,06,04,11,06,17.30
2021,06,04,11,07,17.40
2021,06,04,11,08,17.40
2021,06,04,11,09,17.60
2021,06,04,11,10,17.70
2021,06,04,11,11,17.80
2021,06,04,11,12,17.90
2021,06,04,11,13,18.00
2021,06,04,11,14,18.00
2021,06,04,11,15,18.10
2021,06,04,11,16,18.10
2021,06,04,11,17,18.10
2021,06,04,11,18,18.10
2021,06,04,11,19,18.20
2021,06,04,11,20,18.20
2021,06,04,11,21,18.30
2021,06,04,11,22,18.30
2021,06,04,11,23,18.50
2021,06,04,11,24,18.60
2021,06,04,11,25,18.70
2021,06,04,11,26,18.70
2021,06,04,11,27,18.80
2021,06,04,11,28,18.80
2021,06,04,11,29,18.80
2021,06,04,11,30,18.70
2021,06,04,11,31,18.70
2021,06,04,11,32,18.80
2021,06,04,11,33,18.80
2021,06,04,11,34,18.80
2021,06,04,11,35,18.80
2021,06,04,11,36,18.80
2021,06,04,11,37,18.90
2021,06,04,11,38,18.90
2021,06,04,11,39,18.90
2021,06,04,11,40,19.00
2021,06,04,11,41,19.10
2021,06,04,11,42,19.20
2021,06,04,11,43,19.30
2021,06,04,11,44,19.30
2021,06,04,11,45,19.30
2021,06,04,11,46,19.30
2021,06,04,11,47,19.30
2021,06,04,11,48,19.30
2021,06,04,11,49,19.30
2021,06,04,11,50,19.30
2021,06,04,11,51,19.30
2021,06,04,11,52,19.30
2021,06,04,11,53,19.30
2021,06,04,11,54,19.30
2021,06,04,11,55,19.30
2021,06,04,11,56,19.30
2021,06,04,11,57,19.30
2021,06,04,11,58,19.30
2021,06,04,11,59,19.30
2021,06,04,12,00,19.30
2021,06,04,12,01,19.40
2021,06,04,12,02,19.40
2021,06,04,12,03,19.40
2021,06,04,12,04,19.40
2021,06,04,12,05,19.40
2021,06,04,12,06,19.40
2021,06,04,12,07,19.40
2021,06,04,12,08,19.40
2021,06,04,12,09,19.30
2021,06,04,12,10,19.30
2021,06,04,12,11,19.30
2021,06,04,12,12,19.30
2021,06,04,12,13,19.20
2021,06,04,12,14,19.10
2021,06,04,12,15,19.10
2021,06,04,12,16,19.00
2021,06,04,12,17,19.00
2021,06,04,12,18,19.00
2021,06,04,12,19,18.90
2021,06,04,12,20,18.90
2021,06,04,12,21,18.90
2021,06,04,12,22,18.80
2021,06,04,12,23,18.80
2021,06,04,12,24,18.80
2021,06,04,12,25,18.70
2021,06,04,12,26,18.70
2021,06,04,12,27,18.70
2021,06,04,12,28,18.60
2021,06,04,12,29,18.60
2021,06,04,12,30,18.50
2021,06,04,12,31,18.50
2021,06,04,12,32,18.40
2021,06,04,12,33,18.40
2021,06,04,12,34,18.40
2021,06,04,12,35,18.40
2021,06,04,12,36,18.30
2021,06,04,12,37,18.30
2021,06,04,12,38,18.30
2021,06,04,12,39,18.30
2021,06,04,12,40,18.30
2021,06,04,12,41,18.20
2021,06,04,12,42,18.20
2021,06,04,12,43,18.20
2021,06,04,12,44,18.20
2021,06,04,12,45,18.20
2021,06,04,12,46,18.10
2021,06,04,12,47,18.10
2021,06,04,12,48,18.10
2021,06,04,12,49,18.10
2021,06,04,12,50,18.00
2021,06,04,12,51,18.00
2021,06,04,12,52,17.90
2021,06,04,12,53,17.90
2021,06,04,12,54,17.90
2021,06,04,12,55,17.80
2021,06,04,12,56,17.80
2021,06,04,12,57,17.80
2021,06,04,12,58,17.70
2021,06,04,12,59,17.70
2021,06,04,13,00,17.70
2021,06,04,13,01,17.60
2021,06,04,13,02,17.60
2021,06,04,13,03,17.50
2021,06,04,13,04,17.50
2021,06,04,13,05,17.50
2021,06,04,13,06,17.50
2021,06,04,13,07,17.50
2021,06,04,13,08,17.50
2021,06,04,13,09,17.60
2021,06,04,13,10,17.50
2021,06,04,13,11,17.60
2021,06,04,13,12,17.60
2021,06,04,13,13,17.60
2021,06,04,13,14,17.70
2021,06,04,13,15,17.70
2021,06,04,13,16,17.70
2021,06,04,13,17,17.70
2021,06,04,13,18,17.70
2021,06,04,13,19,17.70
2021,06,04,13,20,17.60
2021,06,04,13,21,17.60
2021,06,04,13,22,17.50
2021,06,04,13,23,17.50
2021,06,04,13,24,17.40
2021,06,04,13,25,17.40
2021,06,04,13,26,17.40
2021,06,04,13,27,17.30
2021,06,04,13,28,17.30
2021,06,04,13,29,17.20
2021,06,04,13,30,17.20
2021,06,04,13,31,17.10
2021,06,04,13,32,17.00
2021,06,04,13,33,17.00
2021,06,04,13,34,16.90
2021,06,04,13,35,16.90
2021,06,04,13,36,16.80
2021,06,04,13,37,16.70
2021,06,04,13,38,16.60
2021,06,04,13,39,16.50
2021,06,04,13,40,16.40
2021,06,04,13,41,16.30
2021,06,04,13,42,16.10
2021,06,04,13,43,16.00
2021,06,04,13,44,15.80
2021,06,04,13,45,15.60
2021,06,04,13,46,15.50
2021,06,04,13,47,15.50
2021,06,04,13,48,15.50
2021,06,04,13,49,15.40
2021,06,04,13,50,15.40
2021,06,04,13,51,15.40
2021,06,04,13,52,15.40
2021,06,04,13,53,15.40
2021,06,04,13,54,15.40
2021,06,04,13,55,15.40
2021,06,04,13,56,15.40
2021,06,04,13,57,15.40
2021,06,04,13,58,15.40
2021,06,04,13,59,15.40
2021,06,04,14,00,15.40
2021,06,04,14,01,15.40
2021,06,04,14,02,15.40
2021,06,04,14,03,15.40
2021,06,04,14,04,15.40
2021,06,04,14,05,15.40
2021,06,04,14,06,15.40
2021,06,04,14,07,15.30
2021,06,04,14,08,15.30
2021,06,04,14,09,15.30
2021,06,04,14,10,15.30
2021,06,04,14,11,15.20
2021,06,04,14,12,15.20
2021,06,04,14,13,15.20
2021,06,04,14,14,15.10
2021,06,04,14,15,15.10
2021,06,04,14,16,15.10
2021,06,04,14,17,15.10
2021,06,04,14,18,15.00
2021,06,04,14,19,15.00
2021,06,04,14,20,15.00
2021,06,04,14,21,15.00
2021,06,04,14,22,15.10
2021,06,04,14,23,15.10
2021,06,04,14,24,15.10
2021,06,04,14,25,15.20
2021,06,04,14,26,15.20
2021,06,04,14,27,15.20
2021,06,04,14,28,15.30
2021,06,04,14,29,15.30
2021,06,04,14,30,15.30
2021,06,04,14,31,15.30
2021,06,04,14,32,15.30
2021,06,04,14,33,15.30
2021,06,04,14,34,15.30
2021,06,04,14,35,15.40
2021,06,04,14,36,15.40
2021,06,04,14,37,15.40
2021,06,04,14,38,15.50
2021,06,04,14,39,15.50
2021,06,04,14,40,15.60
2021,06,04,14,41,15.70
2021,06,04,14,42,15.70
2021,06,04,14,43,15.80
2021,06,04,14,44,15.80
2021,06,04,14,45,15.90
2021,06,04,14,46,16.00
2021,06,04,14,47,16.00
2021,06,04,14,48,16.10
2021,06,04,14,49,16.20
2021,06,04,14,50,16.30
2021,06,04,14,51,16.30
2021,06,04,14,52,16.40
2021,06,04,14,53,16.40
2021,06,04,14,54,16.50
2021,06,04,14,55,16.50
2021,06,04,14,56,16.60
2021,06,04,14,57,16.60
2021,06,04,14,58,16.60
2021,06,04,14,59,16.70
2021,06,04,15,00,16.70
2021,06,04,15,01,16.70
2021,06,04,15,02,16.70
2021,06,04,15,03,16.70
2021,06,04,15,04,16.80
2021,06,04,15,05,16.80
2021,06,04,15,06,16.80
2021,06,04,15,07,16.80
2021,06,04,15,08,16.80
2021,06,04,15,09,16.80
2021,06,04,15,10,16.80
2021,06,04,15,11,16.80
2021,06,04,15,12,16.80
2021,06,04,15,13,16.80
2021,06,04,15,14,16.80
2021,06,04,15,15,16.80
2021,06,04,15,16,16.80
2021,06,04,15,17,16.80
2021,06,04,15,18,16.80
2021,06,04,15,19,16.80
2021,06,04,15,20,16.90
2021,06,04,15,21,16.90
2021,06,04,15,22,16.90
2021,06,04,15,23,16.90
2021,06,04,15,24,16.90
2021,06,04,15,25,16.90
2021,06,04,15,26,16.90
2021,06,04,15,27,16.90
2021,06,04,15,28,17.00
2021,06,04,15,29,17.00
2021,06,04,15,30,17.00
2021,06,04,15,31,17.00
2021,06,04,15,32,17.00
2021,06,04,15,33,17.00
2021,06,04,15,34,17.00
2021,06,04,15,35,17.00
2021,06,04,15,36,17.10
2021,06,04,15,37,17.10
2021,06,04,15,38,17.10
2021,06,04,15,39,17.10
2021,06,04,15,40,17.20
2021,06,04,15,41,17.20
2021,06,04,15,42,17.20
2021,06,04,15,43,17.20
2021,06,04,15,44,17.30
2021,06,04,15,45,17.30
2021,06,04,15,46,17.30
2021,06,04,15,47,17.30
2021,06,04,15,48,17.40
2021,06,04,15,49,17.40
2021,06,04,15,50,17.40
2021,06,04,15,51,17.40
2021,06,04,15,52,17.50
2021,06,04,15,53,17.50
2021,06,04,15,54,17.50
2021,06,04,15,55,17.60
2021,06,04,15,56,17.60
2021,06,04,15,57,17.60
2021,06,04,15,58,17.70
2021,06,04,15,59,17.70
2021,06,04,16,00,17.70
2021,06,04,16,01,17.70
2021,06,04,16,02,17.70
2021,06,04,16,03,17.70
2021,06,04,16,04,17.60
2021,06,04,16,05,17.60
2021,06,04,16,06,17.60
2021,06,04,16,07,17.60
2021,06,04,16,08,17.60
2021,06,04,16,09,17.50
2021,06,04,16,10,17.50
2021,06,04,16,11,17.50
2021,06,04,16,12,17.50
2021,06,04,16,13,17.40
2021,06,04,16,14,17.40
2021,06,04,16,15,17.40
2021,06,04,16,16,17.40
2021,06,04,16,17,17.40
2021,06,04,16,18,17.30
2021,06,04,16,19,17.40
2021,06,04,16,20,17.30
2021,06,04,16,21,17.30
2021,06,04,16,22,17.30
2021,06,04,16,23,17.30
2021,06,04,16,24,17.30
2021,06,04,16,25,17.30
2021,06,04,16,26,17.30
2021,06,04,16,27,17.40
2021,06,04,16,28,17.50
2021,06,04,16,29,17.60
2021,06,04,16,30,17.70
2021,06,04,16,31,17.80
2021,06,04,16,32,17.90
2021,06,04,16,33,17.90
2021,06,04,16,34,18.00
2021,06,04,16,35,17.90
2021,06,04,16,36,18.00
2021,06,04,16,37,17.90
2021,06,04,16,38,17.90
2021,06,04,16,39,17.80
2021,06,04,16,40,17.80
2021,06,04,16,41,17.70
2021,06,04,16,42,17.60
2021,06,04,16,43,17.60
2021,06,04,16,44,17.60
2021,06,04,16,45,17.60
2021,06,04,16,46,17.60
2021,06,04,16,47,17.70
2021,06,04,16,48,17.70
2021,06,04,16,49,17.70
2021,06,04,16,50,17.80
2021,06,04,16,51,17.80
2021,06,04,16,52,17.90
2021,06,04,16,53,17.90
2021,06,04,16,54,17.90
2021,06,04,16,55,17.90
2021,06,04,16,56,17.90
2021,06,04,16,57,17.90
2021,06,04,16,58,17.90
2021,06,04,16,59,17.90
2021,06,04,17,00,17.90
2021,06,04,17,01,17.90
2021,06,04,17,02,18.00
2021,06,04,17,03,18.00
2021,06,04,17,04,18.10
2021,06,04,17,05,18.10
2021,06,04,17,06,18.20
2021,06,04,17,07,18.10
2021,06,04,17,08,18.10
2021,06,04,17,09,18.10
2021,06,04,17,10,18.10
2021,06,04,17,11,18.00
2021,06,04,17,12,18.00
2021,06,04,17,13,17.90
2021,06,04,17,14,17.90
2021,06,04,17,15,17.80
2021,06,04,17,16,17.80
2021,06,04,17,17,17.80
2021,06,04,17,18,17.80
2021,06,04,17,19,17.90